Overview Statistics Trail Chart Weather Telemetry Raw packets
 

This is the latest recevied weather packets stored in our database for station/object KC9DRE. If no packets are shown the sender has not sent any weather packets the latest 10 day(s).

<< 65 66 67 68 69 70 71 >>
Time Temp. Humidity Pressure Rain* Wind** Luminosity Snow
1777472624 14.44° C 92% 1011.4 hPa 0 mm - 86 W/m² -
1777472320 14.44° C 93% 1011.2 hPa 0 mm - 152 W/m² -
1777472018 15° C 93% 1011.2 hPa 0 mm - 258 W/m² -
1777471713 15° C 95% 1011.1 hPa 0 mm - 260 W/m² -
1777471410 14.44° C 95% 1011 hPa 0 mm - 276 W/m² -
1777471107 13.89° C 95% 1011.3 hPa 0 mm - 316 W/m² -
1777470804 13.89° C 95% 1011.2 hPa 0 mm - 173 W/m² -
1777470501 13.89° C 95% 1011.4 hPa 0 mm - 103 W/m² -
1777470196 14.44° C 95% 1011.2 hPa 0 mm - 125 W/m² -
1777469893 14.44° C 95% 1011.2 hPa 0 mm - 102 W/m² -
1777469589 14.44° C 95% 1011.4 hPa 0 mm - 50 W/m² -
1777469289 14.44° C 95% 1011.2 hPa 0 mm - 49 W/m² -
1777468985 15° C 95% 1011.1 hPa 0 mm - 89 W/m² -
1777468680 15° C 95% 1011 hPa 0 mm - 116 W/m² -
1777468377 15° C 95% 1010.9 hPa 0 mm - 103 W/m² -
1777468073 15.56° C 95% 1011 hPa 0 mm - 121 W/m² -
1777467770 16.11° C 96% 1010.9 hPa 0 mm - 38 W/m² -
1777467470 16.11° C 97% 1010.8 hPa 0 mm - 40 W/m² -
1777467165 16.67° C 97% 1010.8 hPa 0 mm - 29 W/m² -
1777466863 16.67° C 97% 1010.9 hPa 0 mm - 34 W/m² -
1777466561 16.67° C 97% 1010.7 hPa 0 mm - 20 W/m² -
1777466257 16.67° C 97% 1010.9 hPa 0 mm - 22 W/m² -
1777465953 16.67° C 97% 1010.8 hPa 0 mm - 27 W/m² -
1777465650 16.67° C 97% 1010.8 hPa 0 mm - 31 W/m² -
1777465345 16.67° C 97% 1010.9 hPa 0 mm - 40 W/m² -

* Rain latest hour (hover to see other rain measurements)
** Current wind speed in m/s (hover to see current wind gust speed)